Regional Weather Roundup
Issued by NWS

Home | Current Version | Previous Version | Graphics & Text | Print | Product List | Glossary On
Versions: 1 2 3 4 5 6 7 8 9 10 11 12 13 14 15 16 17 18 19 20 21 22 23 24 25 26 27 28 29 30 31 32 33 34 35 36 37 38 39 40 41 42 43 44 45 46 47 48 49 50
000
ASUS43 KFSD 241202
RWRSD

WEATHER ROUNDUP FOR SOUTH DAKOTA
NATIONAL WEATHER SERVICE SIOUX FALLS SD
700 AM CDT SUN MAY 24 2015

NOTE: "FAIR" INDICATES FEW OR NO CLOUDS BELOW 12,000 FEET WITH NO
SIGNIFICANT WEATHER AND/OR OBSTRUCTIONS TO VISIBILITY.


SDZ001>005-009-010-012>017-241300-
NORTHWEST AND NORTH CENTRAL SOUTH DAKOTA

CITY           SKY/WX    TMP DP  RH WIND       PRES   REMARKS
FAITH            N/A     51  49  92 NE12      29.99S
MOBRIDGE       CLOUDY    56  52  86 N3        29.99F
$$

SDZ012>016-024>037-041>051-057-063-072>074-241300-
SOUTHWEST AND SOUTH CENTRAL SOUTH DAKOTA

CITY           SKY/WX    TMP DP  RH WIND       PRES   REMARKS
RAPID CTY ARPT LGT RAIN  52  51  97 E13       29.95S FOG
PIERRE         CLOUDY    55  54  96 E8        29.97S FOG
CUSTER         RAIN      47  45  93 E10       29.96R VSB 1
ELLSWORTH AFB  LGT RAIN  52  52 100 E13       29.95  FOG
PHILIP         LGT RAIN  54  54 100 NE10      29.95S
PINE RIDGE     CLOUDY    53  51  93 E9        29.91S
WINNER         FOG       56  54  93 E10       29.95R VSB 1/4
$$

SDZ004>011-016>023-039-040-241300-
NORTHEAST SOUTH DAKOTA

CITY           SKY/WX    TMP DP  RH WIND       PRES   REMARKS
ABERDEEN       CLOUDY    56  49  77 NE9       30.00F
WATERTOWN      CLOUDY    56  49  77 E7        30.01R
BROOKINGS      CLOUDY    57  55  94 E7        30.00R
$$

SDZ017-020-022-023-036>040-048>070-241300-
SOUTHEAST SOUTH DAKOTA

CITY           SKY/WX    TMP DP  RH WIND       PRES   REMARKS
SIOUX FALLS    CLOUDY    59  58  96 E9        29.96S
HURON          CLOUDY    55  54  96 NE6       29.98S FOG
MITCHELL       CLOUDY    58  57  97 NE6       29.97R FOG
YANKTON        CLOUDY    59  55  88 E8        29.93S
$$

ABBREVIATIONS USED IN REMARKS
   TC - TEMPERATURE IN CELSIUS
  WCI - WIND CHILL INDEX
   HX - HEAT INDEX
  VSB - VISIBILITY



USA.gov is the U.S. government's official web portal to all federal, state and local government web resources and services.